{"data":{"norad_id":47806,"intl_designator":"2021-018V","name":"STARLINK-2387","alt_names":[],"object_type":"PAYLOAD","status":"ACTIVE","operator":null,"country":"US","launch_date":"2021-03-11","launch_site_code":"AFETR","launch_vehicle":null,"mission":null,"orbit_class":"UNKNOWN","rcs_meters":null,"size_class":null,"mass_kg":null,"dimensions":null,"purposes":["comms"],"wikipedia_slug":null,"has_3d_model":false,"image_url":null,"decayed_at":null,"tle_current":{"epoch":"2026-09-20T01:19:26.496192Z","epoch_age_seconds":64277,"freshness":"FRESH","line1":"1 47806U 21018V   26263.05516778 -.00000593  00000+0 -73605-5 0  9999","line2":"2 47806  53.1587  58.4324 0001053  91.1200 268.9922 15.31699371306567","mean_motion":15.31699371,"eccentricity":0.0001053,"inclination_deg":53.1587,"raan_deg":58.4324,"arg_perigee_deg":91.12,"mean_anomaly_deg":268.9922,"bstar":-7.3605e-6,"rev_number":30656,"period_min":94.013226568074,"perigee_km":470.02068329752,"apogee_km":471.4630571876,"semimajor_km":6848.8788702426,"source":"CELESTRAK","updated_at":"2026-09-20T09:00:38.747694Z"}}}